Preview of NWS' New Version of Forecast
This preview is not operational and should not be used for support decisions.

Regional Weather Roundup (RWR)

Issued by National Weather Service (NWS)

                            
000
ASUS43 KLSX 180707
RWRMO 

WEATHER SUMMARY FOR MISSOURI
NATIONAL WEATHER SERVICE SPRINGFIELD MO
200 AM CDT THU APR 18 2019

NOTE: "FAIR" INDICATES FEW OR NO CLOUDS BELOW 12,000 FEET WITH NO
       SIGNIFICANT WEATHER AND/OR OBSTRUCTIONS TO VISIBILITY.
       CURRENT SKY AND/OR WEATHER CONDITIONS ARE NOT AVAILABLE FOR
       CHILLICOTHE AND FARMINGTON.

MOZ001>031-035>038-043-044-053-054-180800-
...NORTHERN AND WESTERN MISSOURI...
  
CITY           SKY/WX    TMP DP  RH WIND       PRES   REMARKS
KANSAS CTY INT CLOUDY    51  47  86 N14       29.71F                  
KANSAS C DTWN  CLOUDY    54  48  80 NW14G21   29.70F                  
LEE'S SUMMIT   LGT RAIN  51  47  86 N14G24    29.70F                  
ST JOSEPH      CLOUDY    52  45  77 N14       29.75F                  
CHILLICOTHE      N/A     51  47  86 NW7       29.73F                  
KIRKSVILLE     RAIN      52  50  93 NW10      29.73R FOG              
     
$$
MOZ066>068-077>081-088>096-101>105-180800-
...SOUTHWEST MISSOURI...
  
CITY           SKY/WX    TMP DP  RH WIND       PRES   REMARKS
SPRINGFIELD    TSTM      59  55  87 SW13G23   29.69R FOG              
JOPLIN         CLOUDY    59  56  89 N8        29.69F                  
BRANSON        CLOUDY    64  64 100 CALM      29.71R                  
               
$$
MOZ032>034-039>042-045>050-055>058-069>072-180800-
...CENTRAL MISSOURI...  
  
CITY           SKY/WX    TMP DP  RH WIND       PRES   REMARKS
COLUMBIA       LGT RAIN  61  57  87 NW17      29.63S                  
JEFFERSON CITY CLOUDY    65  62  90 MISG      29.63S                  
ROLLA          LGT RAIN  65  62  90 S9        29.65F                  
SEDALIA        CLOUDY    56  56 100 N14       29.67S                  
WHITEMAN AFB   LGT RAIN  56  56 100 N14       29.64S                  
WARRENSBURG    LGT RAIN  54  52  94 N14       29.68F                  
OSAGE BEACH    CLOUDY    65  64  97 S6        29.63F                  
               
$$
MOZ051-052-059>065-180800-
...EAST CENTRAL MISSOURI...
  
CITY           SKY/WX    TMP DP  RH WIND       PRES   REMARKS
ST LOUIS INTL  TSTM      65  63  93 SE7       29.64F FOG              
SPIRIT OF STL  TSTM      65  64  97 S9        29.64F FOG              
ST CHARLES     TSTM      65  64  97 S9        29.64F                  
                   
$$
MOZ072>076-082>087-097>100-106>115-180800-
...SOUTH CENTRAL AND SOUTHEAST MISSOURI...
  
CITY           SKY/WX    TMP DP  RH WIND       PRES   REMARKS
CAPE GIRARDEAU FAIR      66  59  78 S13       29.74S                  
FARMINGTON     LGT RAIN  66  62  87 S13G18    29.68F                  
POPLAR BLUFF   FAIR      65  63  93 S12       29.73F                  
WEST PLAINS    LGT RAIN  66  62  87 S9G17     29.71F                  
                                       
$$